Regional Weather Roundup
Issued by NWS

Home | Current Version | Previous Version | Text Only | Print | Product List | Glossary Off
Versions: 1 2 3 4 5 6 7 8 9 10 11 12 13 14 15 16 17 18 19 20 21 22 23 24 25 26 27 28 29 30 31 32 33 34 35 36 37 38 39 40 41 42 43 44 45 46 47 48 49 50

000
ASUS43 KDTX 012101
RWRMI
MICHIGAN HOURLY REGIONAL WEATHER ROUNDUP
NATIONAL WEATHER SERVICE DETROIT/PONTIAC MI
400 PM EST SUN FEB 01 2015

NOTE: "FAIR" INDICATES FEW OR NO CLOUDS BELOW 12,000 FEET WITH NO
SIGNIFICANT WEATHER AND/OR OBSTRUCTION TO VISIBILITY.

MIZ047>049-052>055-059>063-066>070-074>076-081>083-012200-
SOUTHEAST LOWER MICHIGAN

CITY           SKY/WX    TMP DP  RH WIND       PRES   REMARKS
ADRIAN         SNOW      23  20  88 E17       29.80F VSB 1/4 WCI   9
ALMA           LGT SNOW  15  12  90 NE17G32   29.97F VSB 1   WCI  -1
ANN ARBOR      SNOW      21  18  88 NE16G24   29.83F VSB 1/4 WCI   7
BAD AXE        LGT SNOW  15  13  89 NE15G21   30.05F WCI   0
CARO           LGT SNOW  15  11  83 NE10G17   30.00F WCI   3
DETROIT CITY   HVY SNOW  21  16  81 NE17G29   29.90F VSB 1/4 WCI   7
DETROIT        HVY SNOW  22  19  89 NE14G24   29.86F VSB 1/4 WCI   9
FLINT          SNOW      17  12  80 NE22G31   29.93F VSB 1/2 WCI   0
GROSSE ILE     SNOW      23  19  86 NE22G30   29.84F VSB 1/2 WCI   8
HILLSDALE      SNOW      22  21  93 E18G24    29.75F VSB 1/2 WCI   8
HOWELL         LGT SNOW  17  14  90 NE14G25   29.85F VSB 3/4 WCI   3

CITY           SKY/WX    TMP DP  RH WIND       PRES   REMARKS
JACKSON        SNOW      20  17  88 NE9       29.80F VSB 1/4 WCI   9
LAMBERTVILLE   SNOW      28  25  86 E9G18     29.80F VSB 1/2 WCI  20
LANSING        SNOW      15  11  83 NE20G36   29.88F VSB 1/4 WCI  -2
LAPEER         LGT SNOW  16  13  86 NE13G20   29.95F WCI   2
MASON          SNOW      16  13  86 NE15G24   29.85F VSB 1/2 WCI   1
MONROE         LGT SNOW  25  21  86 NE20G28   29.80F VSB 3/4 WCI  11
MT. CLEMENS    SNOW      20  17  88 NE17      29.90F VSB 1/2 WCI   5
PONTIAC        HVY SNOW  18  15  88 NE15G25   29.87F VSB 1/4 WCI   4
PORT HOPE        N/A     17  11  77 NE23G31   30.08F WCI  -1
PORT HURON     LGT SNOW  18  16  93 NE17      29.97F WCI   2
TRI CITIES     SNOW      16  11  80 NE24G37   30.01F VSB 1/2 WCI  -2
TROY           HVY SNOW  22  19  86 NE14G26   29.91F VSB<1/4 WCI   9
SAGINAW HB     LGT SNOW  18  14  86 NE22G31   30.00F VSB 3/4 WCI   0
$$
MIZ043>046-050>051-056>058-064>065-071>073-077>080-012200-
SOUTHWEST LOWER MICHIGAN

CITY           SKY/WX    TMP DP  RH WIND       PRES   REMARKS
BATTLE CREEK   SNOW      19  14  81 NE17G28   29.80F VSB 1/2 WCI   4
BENTON HARBOR  SNOW      20  17  88 NE15G28   29.76S VSB 1/4 WCI   6
BIG RAPIDS     LGT SNOW  14  10  83 NE13G18   29.96F WCI  -1
COLDWATER      LGT SNOW  22  20  91 NE16G24   29.76F VSB 3/4 WCI   8
FREMONT        LGT SNOW  15   9  78 NE17G29   29.94F WCI  -1
HOLLAND        HVY SNOW  17  12  80 NE18G30   29.86F VSB 1/4 WCI   1
GRAND RAPIDS   SNOW      15  11  83 NE26G37   29.87F VSB 1/2 WCI  -4
IONIA          LGT SNOW  16  12  85 NE21G36   29.89F VSB 3/4 WCI  -1
KALAMAZOO      SNOW      20  15  81 NE12G20   29.81F VSB 1/2 WCI   8
LUDINGTON      LGT SNOW  16  10  79 NE16      30.01F WCI   0
MARSHALL       LGT SNOW  17  14  87 NE10G18   29.80F VSB 3/4 WCI   5
MOUNT PLEASANT LGT SNOW  14   9  82 NE15G25   29.99F VSB 1   WCI  -2
MUSKEGON       SNOW      17  11  77 NE20G28   29.92F VSB 1/2 WCI   1
SOUTH HAVEN    SNOW      19  15  84 E17G25    29.80S VSB 1/2 WCI   4
$$
MIZ016>042-012200-
NORTHERN LOWER MICHIGAN

CITY           SKY/WX    TMP DP  RH WIND       PRES   REMARKS
ALPENA         CLOUDY     6   1  80 NE17      30.18F BLWGSNOWWCI -13
BEAVER ISLAND  CLOUDY     1  -8  64 NE7       30.20F WCI -12
BELLAIRE       CLOUDY    10  -1  59 NE12G18   30.14F WCI  -4
CADILLAC       CLOUDY    10   4  78 NE10G17   29.98F HAZE    WCI  -4
CHARLEVOIX     CLOUDY     7   0  73 E14G21    30.19F WCI -10
FRANKFORT      CLOUDY    11   2  66 NE12G20   30.09F WCI  -3
GAYLORD        CLOUDY     4  -3  73 NE14G23   30.07F WCI -14
GRAYLING       CLOUDY     8   0  70 E12       30.08S WCI  -7
HARBOR SPRINGS CLOUDY     6  -1  71 NE13G18   30.16F WCI -10
HOUGHTON LAKE  LGT SNOW  10   2  69 NE18G28   30.04F WCI  -8
MANISTEE       CLOUDY    12   1  62 NE15G25   30.04F WCI  -4
OSCODA         CLOUDY    12   7  79 NE21G26   30.12F HAZE    WCI  -6
PELLSTON       CLOUDY     5  -2  72 NE14      30.20F HAZE    WCI -12
TRAVERSE CITY  CLOUDY    11   0  61 NE14      30.11F WCI  -5
$$
MIZ007>008-015-012200-
EASTERN UPPER MICHIGAN

CITY           SKY/WX    TMP DP  RH WIND       PRES   REMARKS
KINROSS        CLOUDY     0 -15  50 NE9       30.24F WCI -16
MACKINAC ISLAN CLOUDY     1 -12  54 NE12      30.22F WCI -15
NEWBERRY       PTSUNNY    1 -11  59 NE8       30.21F WCI -14
S. S. MARIE    CLOUDY     0 -13  54 NW3       30.25F
$$
MIZ004>006-011>014-085-012200-
CENTRAL UPPER MICHIGAN

CITY           SKY/WX    TMP DP  RH WIND       PRES   REMARKS
MANISTIQUE     CLOUDY     5  -8  56 N13G18    30.21F WCI -12
ESCANABA       CLOUDY     9  -2  61 NE8       30.20F WCI  -4
MENOMINEE      CLOUDY     9   0  66 E17       30.17F WCI -10
SAWYER-GWINN   LGT SNOW   9   3  78 NE14      30.18F WCI  -8
$$
MIZ001>003-009>011-084-012200-
WESTERN UPPER MICHIGAN

CITY           SKY/WX    TMP DP  RH WIND       PRES   REMARKS
IRON MOUNTAIN  CLOUDY    11   1  64 N15       30.15F WCI  -5
HOUGHTON       CLOUDY     8  -3  61 E8        30.24F WCI  -4
COPPER HARBOR    N/A      9   1  70 NE9       30.29F WCI  -4
IRONWOOD       CLOUDY    10   1  67 E12       30.19S WCI  -4
$$

ABBREVIATIONS USED IN REMARKS
   TC - TEMPERATURE IN CELSIUS
  WCI - WIND CHILL INDEX
   HX - HEAT INDEX
  VSB - VISIBILITY



USA.gov is the U.S. government's official web portal to all federal, state and local government web resources and services.